Time,TemperatureF,DewpointF,PressureIn,WindDirection,WindDirectionDegrees,WindSpeedMPH,WindSpeedGustMPH,Humidity,HourlyPrecipIn,Conditions,Clouds,dailyrainin,SoftwareType,DateUTC
2013-03-11 00:00:00,34.4,29.8,30.31,SW,225,0.0,1.0,83,0.00,,,-99.99,WeatherLink 5.7,2013-03-11 04:00:00,
2013-03-11 00:05:00,34.3,29.7,30.31,North,-999,0.0,0.0,83,0.00,,,-99.99,WeatherLink 5.7,2013-03-11 04:05:00,
2013-03-11 00:10:00,34.3,30.0,30.31,SW,225,0.0,3.0,84,0.00,,,-99.99,WeatherLink 5.7,2013-03-11 04:10:00,
2013-03-11 00:15:00,34.3,30.0,30.31,SW,225,0.0,2.0,84,0.00,,,-99.99,WeatherLink 5.7,2013-03-11 04:15:00,
2013-03-11 00:20:00,34.3,30.3,30.31,SW,225,2.0,6.0,85,0.00,,,-99.99,WeatherLink 5.7,2013-03-11 04:20:00,
2013-03-11 00:25:00,34.3,30.3,30.31,SW,225,0.0,2.0,85,0.00,,,-99.99,WeatherLink 5.7,2013-03-11 04:25:00,
2013-03-11 00:30:00,34.3,30.5,30.32,SW,225,1.0,3.0,86,0.00,,,-99.99,WeatherLink 5.7,2013-03-11 04:30:00,
2013-03-11 00:35:00,34.3,30.5,30.32,SW,225,1.0,3.0,86,0.00,,,-99.99,WeatherLink 5.7,2013-03-11 04:35:00,
2013-03-11 00:40:00,34.3,30.5,30.32,WNW,292,2.0,6.0,86,0.00,,,-99.99,WeatherLink 5.7,2013-03-11 04:40:00,
2013-03-11 00:45:00,34.3,30.5,30.33,WNW,292,1.0,3.0,86,0.00,,,-99.99,WeatherLink 5.7,2013-03-11 04:45:00,
2013-03-11 00:50:00,34.3,30.5,30.33,WNW,292,1.0,4.0,86,0.00,,,-99.99,WeatherLink 5.7,2013-03-11 04:50:00,
2013-03-11 00:55:00,34.3,30.5,30.33,WNW,292,1.0,8.0,86,0.00,,,-99.99,WeatherLink 5.7,2013-03-11 04:55:00,
2013-03-11 01:00:00,34.3,30.5,30.32,SSW,202,2.0,5.0,86,0.00,,,-99.99,WeatherLink 5.7,2013-03-11 05:00:00,
2013-03-11 01:05:00,34.3,30.8,30.32,WSW,247,1.0,6.0,87,0.00,,,-99.99,WeatherLink 5.7,2013-03-11 05:05:00,
2013-03-11 01:10:00,34.3,30.8,30.32,SW,225,2.0,7.0,87,0.00,,,-99.99,WeatherLink 5.7,2013-03-11 05:10:00,
2013-03-11 01:15:00,34.3,30.8,30.32,SW,225,0.0,2.0,87,0.00,,,-99.99,WeatherLink 5.7,2013-03-11 05:15:00,
2013-03-11 01:20:00,34.3,30.8,30.32,SW,225,2.0,7.0,87,0.00,,,-99.99,WeatherLink 5.7,2013-03-11 05:20:00,
2013-03-11 01:25:00,34.3,30.8,30.32,WSW,247,2.0,7.0,87,0.00,,,-99.99,WeatherLink 5.7,2013-03-11 05:25:00,
2013-03-11 01:30:00,34.3,30.8,30.32,SSW,202,0.0,2.0,87,0.00,,,-99.99,WeatherLink 5.7,2013-03-11 05:30:00,
2013-03-11 01:35:00,34.3,30.8,30.32,SSW,202,1.0,5.0,87,0.00,,,-99.99,WeatherLink 5.7,2013-03-11 05:35:00,
2013-03-11 01:40:00,34.3,30.8,30.32,SSW,202,0.0,3.0,87,0.00,,,-99.99,WeatherLink 5.7,2013-03-11 05:40:00,
2013-03-11 01:45:00,34.3,30.8,30.32,SSW,202,0.0,1.0,87,0.00,,,-99.99,WeatherLink 5.7,2013-03-11 05:45:00,
2013-03-11 01:50:00,34.3,30.8,30.32,SW,225,1.0,6.0,87,0.00,,,-99.99,WeatherLink 5.7,2013-03-11 05:50:00,
2013-03-11 01:55:00,34.3,31.1,30.32,West,270,1.0,7.0,88,0.00,,,-99.99,WeatherLink 5.7,2013-03-11 05:55:00,
2013-03-11 02:00:00,34.3,31.1,30.32,SW,225,2.0,6.0,88,0.00,,,-99.99,WeatherLink 5.7,2013-03-11 06:00:00,
2013-03-11 02:05:00,34.4,31.2,30.32,South,180,1.0,5.0,88,0.00,,,-99.99,WeatherLink 5.7,2013-03-11 06:05:00,
2013-03-11 02:10:00,34.4,31.2,30.32,SSW,202,1.0,5.0,88,0.00,,,-99.99,WeatherLink 5.7,2013-03-11 06:10:00,
2013-03-11 02:15:00,34.4,31.2,30.32,WNW,292,1.0,7.0,88,0.00,,,-99.99,WeatherLink 5.7,2013-03-11 06:15:00,
2013-03-11 02:20:00,34.4,31.2,30.32,North,-999,0.0,0.0,88,0.00,,,-99.99,WeatherLink 5.7,2013-03-11 06:20:00,
2013-03-11 02:25:00,34.4,31.2,30.32,West,270,0.0,3.0,88,0.00,,,-99.99,WeatherLink 5.7,2013-03-11 06:25:00,
2013-03-11 02:30:00,34.4,31.2,30.30,North,-999,0.0,0.0,88,0.00,,,-99.99,WeatherLink 5.7,2013-03-11 06:30:00,
2013-03-11 02:35:00,34.6,31.4,30.30,North,-999,0.0,0.0,88,0.00,,,-99.99,WeatherLink 5.7,2013-03-11 06:35:00,
2013-03-11 02:40:00,34.6,31.4,30.30,North,-999,0.0,0.0,88,0.00,,,-99.99,WeatherLink 5.7,2013-03-11 06:40:00,
2013-03-11 02:45:00,34.6,31.4,30.28,North,-999,0.0,0.0,88,0.00,,,-99.99,WeatherLink 5.7,2013-03-11 06:45:00,
2013-03-11 02:50:00,34.6,31.4,30.28,South,180,0.0,5.0,88,0.00,,,-99.99,WeatherLink 5.7,2013-03-11 06:50:00,
2013-03-11 02:55:00,34.6,31.1,30.28,SSW,202,1.0,6.0,87,0.00,,,-99.99,WeatherLink 5.7,2013-03-11 06:55:00,
2013-03-11 03:00:00,34.6,31.1,30.28,NW,315,1.0,5.0,87,0.00,,,-99.99,WeatherLink 5.7,2013-03-11 07:00:00,
2013-03-11 03:05:00,34.6,31.1,30.28,SSW,202,0.0,5.0,87,0.00,,,-99.99,WeatherLink 5.7,2013-03-11 07:05:00,
2013-03-11 03:10:00,34.6,31.4,30.28,North,-999,0.0,0.0,88,0.00,,,-99.99,WeatherLink 5.7,2013-03-11 07:10:00,
2013-03-11 03:15:00,34.6,31.1,30.28,SW,225,0.0,3.0,87,0.00,,,-99.99,WeatherLink 5.7,2013-03-11 07:15:00,
2013-03-11 03:20:00,34.6,31.1,30.28,North,-999,0.0,0.0,87,0.00,,,-99.99,WeatherLink 5.7,2013-03-11 07:20:00,
2013-03-11 03:25:00,34.7,31.2,30.28,North,-999,0.0,0.0,87,0.00,,,-99.99,WeatherLink 5.7,2013-03-11 07:25:00,
2013-03-11 03:30:00,34.7,31.2,30.28,North,-999,0.0,0.0,87,0.00,,,-99.99,WeatherLink 5.7,2013-03-11 07:30:00,
2013-03-11 03:35:00,34.7,31.2,30.28,SSW,202,0.0,7.0,87,0.00,,,-99.99,WeatherLink 5.7,2013-03-11 07:35:00,
2013-03-11 03:40:00,34.7,31.2,30.28,SE,135,0.0,3.0,87,0.00,,,-99.99,WeatherLink 5.7,2013-03-11 07:40:00,
2013-03-11 03:45:00,34.6,31.1,30.28,North,-999,0.0,0.0,87,0.00,,,-99.99,WeatherLink 5.7,2013-03-11 07:45:00,
2013-03-11 03:50:00,34.7,31.2,30.28,North,-999,0.0,0.0,87,0.00,,,-99.99,WeatherLink 5.7,2013-03-11 07:50:00,
2013-03-11 03:55:00,34.7,31.2,30.28,North,-999,0.0,0.0,87,0.00,,,-99.99,WeatherLink 5.7,2013-03-11 07:55:00,
2013-03-11 04:00:00,34.7,31.2,30.28,North,-999,0.0,0.0,87,0.00,,,-99.99,WeatherLink 5.7,2013-03-11 08:00:00,
2013-03-11 04:05:00,34.7,31.2,30.28,SSE,157,1.0,5.0,87,0.00,,,-99.99,WeatherLink 5.7,2013-03-11 08:05:00,
2013-03-11 04:10:00,34.7,31.2,30.28,South,180,0.0,2.0,87,0.00,,,-99.99,WeatherLink 5.7,2013-03-11 08:10:00,
2013-03-11 04:15:00,34.7,31.2,30.28,SSW,202,0.0,2.0,87,0.00,,,-99.99,WeatherLink 5.7,2013-03-11 08:15:00,
2013-03-11 04:20:00,34.7,31.2,30.28,SSW,202,0.0,2.0,87,0.00,,,-99.99,WeatherLink 5.7,2013-03-11 08:20:00,
2013-03-11 04:25:00,34.7,31.2,30.28,SSW,202,1.0,5.0,87,0.00,,,-99.99,WeatherLink 5.7,2013-03-11 08:25:00,
2013-03-11 04:30:00,34.7,31.2,30.28,North,-999,0.0,0.0,87,0.00,,,-99.99,WeatherLink 5.7,2013-03-11 08:30:00,
2013-03-11 04:35:00,34.7,31.2,30.28,SSW,202,0.0,3.0,87,0.00,,,-99.99,WeatherLink 5.7,2013-03-11 08:35:00,
2013-03-11 04:40:00,34.7,31.2,30.28,SSW,202,0.0,3.0,87,0.00,,,-99.99,WeatherLink 5.7,2013-03-11 08:40:00,
2013-03-11 04:45:00,34.7,31.2,30.27,SSW,202,0.0,2.0,87,0.00,,,-99.99,WeatherLink 5.7,2013-03-11 08:45:00,
2013-03-11 04:50:00,34.7,31.2,30.27,South,180,0.0,3.0,87,0.00,,,-99.99,WeatherLink 5.7,2013-03-11 08:50:00,
2013-03-11 04:55:00,34.7,31.2,30.27,North,-999,0.0,0.0,87,0.00,,,-99.99,WeatherLink 5.7,2013-03-11 08:55:00,
2013-03-11 05:00:00,34.6,31.1,30.26,North,-999,0.0,0.0,87,0.00,,,-99.99,WeatherLink 5.7,2013-03-11 09:00:00,
2013-03-11 05:05:00,34.7,31.2,30.26,North,-999,0.0,0.0,87,0.00,,,-99.99,WeatherLink 5.7,2013-03-11 09:05:00,
2013-03-11 05:10:00,34.7,31.2,30.26,North,-999,0.0,0.0,87,0.00,,,-99.99,WeatherLink 5.7,2013-03-11 09:10:00,
2013-03-11 05:15:00,34.9,31.4,30.27,North,-999,0.0,0.0,87,0.00,,,-99.99,WeatherLink 5.7,2013-03-11 09:15:00,
2013-03-11 05:20:00,34.9,31.4,30.27,North,-999,0.0,0.0,87,0.00,,,-99.99,WeatherLink 5.7,2013-03-11 09:20:00,
2013-03-11 05:25:00,34.9,31.4,30.27,SW,225,1.0,6.0,87,0.00,,,-99.99,WeatherLink 5.7,2013-03-11 09:25:00,
2013-03-11 05:30:00,34.9,31.4,30.27,WSW,247,0.0,3.0,87,0.00,,,-99.99,WeatherLink 5.7,2013-03-11 09:30:00,
2013-03-11 05:35:00,34.9,31.4,30.27,North,-999,0.0,0.0,87,0.00,,,-99.99,WeatherLink 5.7,2013-03-11 09:35:00,
2013-03-11 05:40:00,34.9,31.4,30.27,WNW,292,1.0,5.0,87,0.00,,,-99.99,WeatherLink 5.7,2013-03-11 09:40:00,
2013-03-11 05:45:00,34.9,31.4,30.28,WNW,292,2.0,6.0,87,0.00,,,-99.99,WeatherLink 5.7,2013-03-11 09:45:00,
2013-03-11 05:50:00,34.9,31.4,30.28,WSW,247,1.0,5.0,87,0.00,,,-99.99,WeatherLink 5.7,2013-03-11 09:50:00,
2013-03-11 05:55:00,34.9,31.4,30.28,West,270,0.0,2.0,87,0.00,,,-99.99,WeatherLink 5.7,2013-03-11 09:55:00,
2013-03-11 06:00:00,34.9,31.4,30.27,West,270,0.0,2.0,87,0.00,,,-99.99,WeatherLink 5.7,2013-03-11 10:00:00,
2013-03-11 06:05:00,34.9,31.4,30.27,North,-999,0.0,0.0,87,0.00,,,-99.99,WeatherLink 5.7,2013-03-11 10:05:00,
2013-03-11 06:10:00,34.9,31.4,30.27,West,270,0.0,2.0,87,0.00,,,-99.99,WeatherLink 5.7,2013-03-11 10:10:00,
2013-03-11 06:15:00,34.9,31.4,30.27,West,270,0.0,2.0,87,0.00,,,-99.99,WeatherLink 5.7,2013-03-11 10:15:00,
2013-03-11 06:20:00,35.0,31.8,30.27,West,270,0.0,5.0,88,0.00,,,-99.99,WeatherLink 5.7,2013-03-11 10:20:00,
2013-03-11 06:25:00,35.0,31.8,30.27,North,-999,0.0,0.0,88,0.00,,,-99.99,WeatherLink 5.7,2013-03-11 10:25:00,
2013-03-11 06:30:00,35.0,31.8,30.27,North,-999,0.0,0.0,88,0.00,,,-99.99,WeatherLink 5.7,2013-03-11 10:30:00,
2013-03-11 06:35:00,35.0,31.8,30.27,North,-999,0.0,0.0,88,0.00,,,-99.99,WeatherLink 5.7,2013-03-11 10:35:00,
2013-03-11 06:40:00,35.2,32.0,30.27,North,-999,0.0,0.0,88,0.00,,,-99.99,WeatherLink 5.7,2013-03-11 10:40:00,
2013-03-11 06:45:00,35.2,32.0,30.27,North,-999,0.0,0.0,88,0.00,,,-99.99,WeatherLink 5.7,2013-03-11 10:45:00,
2013-03-11 06:50:00,35.0,31.8,30.27,North,-999,0.0,0.0,88,0.00,,,-99.99,WeatherLink 5.7,2013-03-11 10:50:00,
2013-03-11 06:55:00,35.0,31.8,30.27,North,-999,0.0,0.0,88,0.00,,,-99.99,WeatherLink 5.7,2013-03-11 10:55:00,
2013-03-11 07:00:00,35.0,31.8,30.27,North,-999,0.0,0.0,88,0.00,,,-99.99,WeatherLink 5.7,2013-03-11 11:00:00,
2013-03-11 07:05:00,35.0,31.8,30.27,North,-999,0.0,0.0,88,0.00,,,-99.99,WeatherLink 5.7,2013-03-11 11:05:00,
2013-03-11 07:10:00,35.0,32.1,30.27,North,-999,0.0,0.0,89,0.00,,,-99.99,WeatherLink 5.7,2013-03-11 11:10:00,
2013-03-11 07:15:00,35.2,32.3,30.27,North,-999,0.0,0.0,89,0.00,,,-99.99,WeatherLink 5.7,2013-03-11 11:15:00,
2013-03-11 07:20:00,35.3,32.4,30.27,West,270,0.0,2.0,89,0.00,,,-99.99,WeatherLink 5.7,2013-03-11 11:20:00,
2013-03-11 07:25:00,35.2,32.3,30.27,North,-999,0.0,0.0,89,0.00,,,-99.99,WeatherLink 5.7,2013-03-11 11:25:00,
2013-03-11 07:30:00,35.2,32.0,30.27,North,-999,0.0,0.0,88,0.00,,,-99.99,WeatherLink 5.7,2013-03-11 11:30:00,
2013-03-11 07:35:00,35.2,32.3,30.27,North,-999,0.0,0.0,89,0.00,,,-99.99,WeatherLink 5.7,2013-03-11 11:35:00,
2013-03-11 07:40:00,35.2,32.3,30.27,West,270,0.0,2.0,89,0.00,,,-99.99,WeatherLink 5.7,2013-03-11 11:40:00,
2013-03-11 07:45:00,35.3,32.4,30.27,North,-999,0.0,0.0,89,0.00,,,-99.99,WeatherLink 5.7,2013-03-11 11:45:00,
2013-03-11 07:50:00,35.6,32.7,30.27,North,-999,0.0,0.0,89,0.00,,,-99.99,WeatherLink 5.7,2013-03-11 11:50:00,
2013-03-11 07:55:00,35.8,32.9,30.27,North,-999,0.0,0.0,89,0.00,,,-99.99,WeatherLink 5.7,2013-03-11 11:55:00,
2013-03-11 08:00:00,35.8,32.9,30.27,North,-999,0.0,0.0,89,0.00,,,-99.99,WeatherLink 5.7,2013-03-11 12:00:00,
2013-03-11 08:05:00,35.9,33.0,30.27,North,-999,0.0,0.0,89,0.00,,,-99.99,WeatherLink 5.7,2013-03-11 12:05:00,
2013-03-11 08:10:00,35.9,33.0,30.27,North,-999,0.0,0.0,89,0.00,,,-99.99,WeatherLink 5.7,2013-03-11 12:10:00,
2013-03-11 08:15:00,36.0,33.1,30.27,West,270,0.0,3.0,89,0.00,,,-99.99,WeatherLink 5.7,2013-03-11 12:15:00,
2013-03-11 08:20:00,36.2,33.5,30.27,West,270,0.0,4.0,90,0.00,,,-99.99,WeatherLink 5.7,2013-03-11 12:20:00,
2013-03-11 08:25:00,36.3,33.6,30.27,West,270,0.0,3.0,90,0.00,,,-99.99,WeatherLink 5.7,2013-03-11 12:25:00,
2013-03-11 08:30:00,36.5,33.6,30.27,WSW,247,1.0,5.0,89,0.00,,,-99.99,WeatherLink 5.7,2013-03-11 12:30:00,
2013-03-11 08:35:00,36.6,33.7,30.27,WSW,247,0.0,2.0,89,0.00,,,-99.99,WeatherLink 5.7,2013-03-11 12:35:00,
2013-03-11 08:40:00,36.8,33.9,30.27,North,-999,0.0,0.0,89,0.00,,,-99.99,WeatherLink 5.7,2013-03-11 12:40:00,
2013-03-11 08:45:00,36.9,34.0,30.27,WSW,247,0.0,3.0,89,0.00,,,-99.99,WeatherLink 5.7,2013-03-11 12:45:00,
2013-03-11 08:50:00,37.0,34.1,30.27,WSW,247,0.0,3.0,89,0.00,,,-99.99,WeatherLink 5.7,2013-03-11 12:50:00,
2013-03-11 08:55:00,37.2,34.0,30.27,North,-999,0.0,0.0,88,0.00,,,-99.99,WeatherLink 5.7,2013-03-11 12:55:00,
2013-03-11 09:00:00,37.2,34.0,30.27,North,-999,0.0,0.0,88,0.00,,,-99.99,WeatherLink 5.7,2013-03-11 13:00:00,
2013-03-11 09:05:00,37.5,34.3,30.27,North,-999,0.0,0.0,88,0.00,,,-99.99,WeatherLink 5.7,2013-03-11 13:05:00,
2013-03-11 09:10:00,37.8,34.6,30.27,SW,225,1.0,6.0,88,0.00,,,-99.99,WeatherLink 5.7,2013-03-11 13:10:00,
2013-03-11 09:15:00,37.8,34.3,30.27,SW,225,1.0,4.0,87,0.00,,,-99.99,WeatherLink 5.7,2013-03-11 13:15:00,
2013-03-11 09:20:00,37.9,34.4,30.27,North,-999,0.0,0.0,87,0.00,,,-99.99,WeatherLink 5.7,2013-03-11 13:20:00,
2013-03-11 09:25:00,38.0,34.5,30.27,North,-999,0.0,0.0,87,0.00,,,-99.99,WeatherLink 5.7,2013-03-11 13:25:00,
2013-03-11 09:30:00,38.3,34.8,30.27,SW,225,1.0,5.0,87,0.00,,,-99.99,WeatherLink 5.7,2013-03-11 13:30:00,
2013-03-11 09:35:00,38.5,34.7,30.27,SW,225,0.0,2.0,86,0.00,,,-99.99,WeatherLink 5.7,2013-03-11 13:35:00,
2013-03-11 09:40:00,38.8,35.0,30.27,SW,225,1.0,6.0,86,0.00,,,-99.99,WeatherLink 5.7,2013-03-11 13:40:00,
2013-03-11 09:45:00,39.1,35.0,30.28,SW,225,1.0,4.0,85,0.00,,,-99.99,WeatherLink 5.7,2013-03-11 13:45:00,
2013-03-11 09:50:00,39.2,34.8,30.28,SW,225,3.0,8.0,84,0.00,,,-99.99,WeatherLink 5.7,2013-03-11 13:50:00,
2013-03-11 09:55:00,39.5,35.1,30.28,SSW,202,0.0,3.0,84,0.00,,,-99.99,WeatherLink 5.7,2013-03-11 13:55:00,
2013-03-11 10:00:00,39.6,35.2,30.27,WSW,247,1.0,7.0,84,0.00,,,-99.99,WeatherLink 5.7,2013-03-11 14:00:00,
2013-03-11 10:05:00,39.6,34.9,30.27,WSW,247,1.0,5.0,83,0.00,,,-99.99,WeatherLink 5.7,2013-03-11 14:05:00,
2013-03-11 10:10:00,39.6,34.9,30.27,West,270,2.0,8.0,83,0.00,,,-99.99,WeatherLink 5.7,2013-03-11 14:10:00,
2013-03-11 10:15:00,39.8,35.1,30.28,SW,225,2.0,7.0,83,0.00,,,-99.99,WeatherLink 5.7,2013-03-11 14:15:00,
2013-03-11 10:20:00,39.8,35.1,30.28,West,270,3.0,7.0,83,0.00,,,-99.99,WeatherLink 5.7,2013-03-11 14:20:00,
2013-03-11 10:25:00,39.9,35.2,30.28,SSW,202,2.0,8.0,83,0.00,,,-99.99,WeatherLink 5.7,2013-03-11 14:25:00,
2013-03-11 10:30:00,40.2,35.4,30.28,SW,225,1.0,6.0,83,0.00,,,-99.99,WeatherLink 5.7,2013-03-11 14:30:00,
2013-03-11 10:35:00,40.6,35.5,30.28,WSW,247,2.0,7.0,82,0.00,,,-99.99,WeatherLink 5.7,2013-03-11 14:35:00,
2013-03-11 10:40:00,40.9,35.5,30.28,West,270,2.0,8.0,81,0.00,,,-99.99,WeatherLink 5.7,2013-03-11 14:40:00,
2013-03-11 10:45:00,41.3,35.9,30.28,SW,225,2.0,10.0,81,0.00,,,-99.99,WeatherLink 5.7,2013-03-11 14:45:00,
2013-03-11 10:50:00,41.6,35.9,30.28,SW,225,3.0,11.0,80,0.00,,,-99.99,WeatherLink 5.7,2013-03-11 14:50:00,
2013-03-11 10:55:00,41.9,35.9,30.28,SW,225,1.0,7.0,79,0.00,,,-99.99,WeatherLink 5.7,2013-03-11 14:55:00,
2013-03-11 11:00:00,42.2,36.2,30.27,WSW,247,1.0,6.0,79,0.00,,,-99.99,WeatherLink 5.7,2013-03-11 15:00:00,
2013-03-11 11:05:00,42.3,35.9,30.27,SSW,202,2.0,6.0,78,0.00,,,-99.99,WeatherLink 5.7,2013-03-11 15:05:00,
2013-03-11 11:10:00,42.6,36.2,30.27,SSW,202,1.0,6.0,78,0.00,,,-99.99,WeatherLink 5.7,2013-03-11 15:10:00,
2013-03-11 11:15:00,42.8,36.1,30.27,WSW,247,1.0,10.0,77,0.00,,,-99.99,WeatherLink 5.7,2013-03-11 15:15:00,
2013-03-11 11:20:00,42.8,36.4,30.27,WNW,292,2.0,10.0,78,0.00,,,-99.99,WeatherLink 5.7,2013-03-11 15:20:00,
2013-03-11 11:25:00,42.9,36.2,30.27,SW,225,1.0,6.0,77,0.00,,,-99.99,WeatherLink 5.7,2013-03-11 15:25:00,
2013-03-11 11:30:00,43.2,36.5,30.27,WSW,247,0.0,5.0,77,0.00,,,-99.99,WeatherLink 5.7,2013-03-11 15:30:00,
2013-03-11 11:35:00,43.5,36.4,30.27,SW,225,2.0,7.0,76,0.00,,,-99.99,WeatherLink 5.7,2013-03-11 15:35:00,
2013-03-11 11:40:00,43.6,36.5,30.27,West,270,2.0,11.0,76,0.00,,,-99.99,WeatherLink 5.7,2013-03-11 15:40:00,
2013-03-11 11:45:00,44.1,36.7,30.27,West,270,2.0,6.0,75,0.00,,,-99.99,WeatherLink 5.7,2013-03-11 15:45:00,
2013-03-11 11:50:00,44.6,36.8,30.27,SW,225,3.0,8.0,74,0.00,,,-99.99,WeatherLink 5.7,2013-03-11 15:50:00,
2013-03-11 11:55:00,45.2,37.1,30.27,NW,315,1.0,5.0,73,0.00,,,-99.99,WeatherLink 5.7,2013-03-11 15:55:00,
2013-03-11 12:00:00,45.8,36.6,30.27,SW,225,4.0,11.0,70,0.00,,,-99.99,WeatherLink 5.7,2013-03-11 16:00:00,
2013-03-11 12:05:00,46.1,36.9,30.27,SSW,202,3.0,14.0,70,0.00,,,-99.99,WeatherLink 5.7,2013-03-11 16:05:00,
2013-03-11 12:10:00,45.8,36.2,30.27,West,270,2.0,7.0,69,0.00,,,-99.99,WeatherLink 5.7,2013-03-11 16:10:00,
2013-03-11 12:15:00,46.1,36.9,30.26,WSW,247,2.0,8.0,70,0.00,,,-99.99,WeatherLink 5.7,2013-03-11 16:15:00,
2013-03-11 12:20:00,46.5,37.2,30.26,WSW,247,3.0,11.0,70,0.00,,,-99.99,WeatherLink 5.7,2013-03-11 16:20:00,
2013-03-11 12:25:00,46.8,37.2,30.26,WNW,292,2.0,8.0,69,0.00,,,-99.99,WeatherLink 5.7,2013-03-11 16:25:00,
2013-03-11 12:30:00,47.3,37.6,30.25,NW,315,1.0,10.0,69,0.00,,,-99.99,WeatherLink 5.7,2013-03-11 16:30:00,
2013-03-11 12:35:00,47.6,36.4,30.25,SSW,202,2.0,9.0,65,0.00,,,-99.99,WeatherLink 5.7,2013-03-11 16:35:00,
2013-03-11 12:40:00,47.4,36.2,30.25,SSW,202,0.0,6.0,65,0.00,,,-99.99,WeatherLink 5.7,2013-03-11 16:40:00,
2013-03-11 12:45:00,47.6,36.4,30.24,SSW,202,0.0,3.0,65,0.00,,,-99.99,WeatherLink 5.7,2013-03-11 16:45:00,
2013-03-11 12:50:00,47.6,36.0,30.24,South,180,1.0,6.0,64,0.00,,,-99.99,WeatherLink 5.7,2013-03-11 16:50:00,
2013-03-11 12:55:00,47.4,36.2,30.24,West,270,2.0,11.0,65,0.00,,,-99.99,WeatherLink 5.7,2013-03-11 16:55:00,
2013-03-11 13:00:00,47.3,35.7,30.23,West,270,2.0,6.0,64,0.00,,,-99.99,WeatherLink 5.7,2013-03-11 17:00:00,
2013-03-11 13:05:00,47.3,36.1,30.23,SSW,202,2.0,8.0,65,0.00,,,-99.99,WeatherLink 5.7,2013-03-11 17:05:00,
2013-03-11 13:10:00,47.0,35.8,30.23,SSW,202,2.0,7.0,65,0.00,,,-99.99,WeatherLink 5.7,2013-03-11 17:10:00,
2013-03-11 13:15:00,47.1,35.9,30.23,SW,225,2.0,11.0,65,0.00,,,-99.99,WeatherLink 5.7,2013-03-11 17:15:00,
2013-03-11 13:20:00,47.3,36.1,30.23,SSW,202,1.0,7.0,65,0.00,,,-99.99,WeatherLink 5.7,2013-03-11 17:20:00,
2013-03-11 13:25:00,47.6,36.4,30.23,South,180,1.0,6.0,65,0.00,,,-99.99,WeatherLink 5.7,2013-03-11 17:25:00,
2013-03-11 13:30:00,47.7,36.5,30.22,WSW,247,3.0,10.0,65,0.00,,,-99.99,WeatherLink 5.7,2013-03-11 17:30:00,
2013-03-11 13:35:00,47.7,36.1,30.22,WSW,247,2.0,6.0,64,0.00,,,-99.99,WeatherLink 5.7,2013-03-11 17:35:00,
2013-03-11 13:40:00,48.0,36.0,30.22,SW,225,3.0,8.0,63,0.00,,,-99.99,WeatherLink 5.7,2013-03-11 17:40:00,
2013-03-11 13:45:00,48.2,36.2,30.23,SW,225,2.0,11.0,63,0.00,,,-99.99,WeatherLink 5.7,2013-03-11 17:45:00,
2013-03-11 13:50:00,48.3,36.3,30.23,SSE,157,2.0,9.0,63,0.00,,,-99.99,WeatherLink 5.7,2013-03-11 17:50:00,
2013-03-11 13:55:00,48.5,36.5,30.23,SSW,202,2.0,7.0,63,0.00,,,-99.99,WeatherLink 5.7,2013-03-11 17:55:00,
2013-03-11 14:00:00,49.1,36.6,30.22,SSE,157,1.0,5.0,62,0.00,,,-99.99,WeatherLink 5.7,2013-03-11 18:00:00,
2013-03-11 14:05:00,49.8,36.9,30.22,WSW,247,1.0,8.0,61,0.00,,,-99.99,WeatherLink 5.7,2013-03-11 18:05:00,
2013-03-11 14:10:00,50.1,36.3,30.22,South,180,2.0,8.0,59,0.00,,,-99.99,WeatherLink 5.7,2013-03-11 18:10:00,
2013-03-11 14:15:00,50.5,36.7,30.21,WSW,247,1.0,7.0,59,0.00,,,-99.99,WeatherLink 5.7,2013-03-11 18:15:00,
2013-03-11 14:20:00,50.7,36.5,30.21,SW,225,2.0,11.0,58,0.00,,,-99.99,WeatherLink 5.7,2013-03-11 18:20:00,
2013-03-11 14:25:00,50.8,36.5,30.21,SW,225,1.0,7.0,58,0.00,,,-99.99,WeatherLink 5.7,2013-03-11 18:25:00,
2013-03-11 14:30:00,50.8,36.1,30.20,South,180,3.0,11.0,57,0.00,,,-99.99,WeatherLink 5.7,2013-03-11 18:30:00,
2013-03-11 14:35:00,50.7,36.5,30.20,SW,225,3.0,11.0,58,0.00,,,-99.99,WeatherLink 5.7,2013-03-11 18:35:00,
2013-03-11 14:40:00,50.8,36.5,30.20,SSE,157,1.0,5.0,58,0.00,,,-99.99,WeatherLink 5.7,2013-03-11 18:40:00,
2013-03-11 14:45:00,51.3,37.0,30.19,SSE,157,1.0,8.0,58,0.00,,,-99.99,WeatherLink 5.7,2013-03-11 18:45:00,
2013-03-11 14:50:00,51.9,37.1,30.19,SSW,202,3.0,7.0,57,0.00,,,-99.99,WeatherLink 5.7,2013-03-11 18:50:00,
2013-03-11 14:55:00,51.6,36.9,30.19,South,180,5.0,13.0,57,0.00,,,-99.99,WeatherLink 5.7,2013-03-11 18:55:00,
2013-03-11 15:00:00,51.0,36.7,30.19,SSE,157,4.0,11.0,58,0.00,,,-99.99,WeatherLink 5.7,2013-03-11 19:00:00,
2013-03-11 15:05:00,50.7,36.5,30.19,SSW,202,1.0,10.0,58,0.00,,,-99.99,WeatherLink 5.7,2013-03-11 19:05:00,
2013-03-11 15:10:00,50.5,36.7,30.19,WSW,247,3.0,7.0,59,0.00,,,-99.99,WeatherLink 5.7,2013-03-11 19:10:00,
2013-03-11 15:15:00,50.7,36.9,30.19,WSW,247,1.0,7.0,59,0.00,,,-99.99,WeatherLink 5.7,2013-03-11 19:15:00,
2013-03-11 15:20:00,51.0,36.7,30.19,SW,225,1.0,6.0,58,0.00,,,-99.99,WeatherLink 5.7,2013-03-11 19:20:00,
2013-03-11 15:25:00,51.0,36.7,30.19,SSE,157,1.0,7.0,58,0.00,,,-99.99,WeatherLink 5.7,2013-03-11 19:25:00,
2013-03-11 15:30:00,50.8,37.0,30.19,SW,225,2.0,7.0,59,0.00,,,-99.99,WeatherLink 5.7,2013-03-11 19:30:00,
2013-03-11 15:35:00,50.7,37.3,30.19,SW,225,1.0,10.0,60,0.00,,,-99.99,WeatherLink 5.7,2013-03-11 19:35:00,
2013-03-11 15:40:00,50.7,37.7,30.19,West,270,1.0,6.0,61,0.00,,,-99.99,WeatherLink 5.7,2013-03-11 19:40:00,
2013-03-11 15:45:00,50.7,37.7,30.19,South,180,1.0,7.0,61,0.00,,,-99.99,WeatherLink 5.7,2013-03-11 19:45:00,
2013-03-11 15:50:00,50.4,37.9,30.19,WSW,247,2.0,8.0,62,0.00,,,-99.99,WeatherLink 5.7,2013-03-11 19:50:00,
2013-03-11 15:55:00,50.1,37.6,30.19,SW,225,2.0,7.0,62,0.00,,,-99.99,WeatherLink 5.7,2013-03-11 19:55:00,
2013-03-11 16:00:00,49.9,37.4,30.19,North,-999,0.0,0.0,62,0.00,,,-99.99,WeatherLink 5.7,2013-03-11 20:00:00,
2013-03-11 16:05:00,49.6,37.5,30.19,SW,225,0.0,1.0,63,0.00,,,-99.99,WeatherLink 5.7,2013-03-11 20:05:00,
2013-03-11 16:10:00,49.6,37.9,30.19,WNW,292,1.0,8.0,64,0.00,,,-99.99,WeatherLink 5.7,2013-03-11 20:10:00,
2013-03-11 16:15:00,49.5,37.8,30.18,SW,225,1.0,5.0,64,0.00,,,-99.99,WeatherLink 5.7,2013-03-11 20:15:00,
2013-03-11 16:20:00,49.2,37.5,30.18,SSW,202,2.0,8.0,64,0.00,,,-99.99,WeatherLink 5.7,2013-03-11 20:20:00,
2013-03-11 16:25:00,48.9,37.6,30.18,SW,225,0.0,3.0,65,0.00,,,-99.99,WeatherLink 5.7,2013-03-11 20:25:00,
2013-03-11 16:30:00,48.6,37.7,30.18,SSE,157,1.0,6.0,66,0.00,,,-99.99,WeatherLink 5.7,2013-03-11 20:30:00,
2013-03-11 16:35:00,48.5,37.7,30.18,SW,225,2.0,9.0,66,0.00,,,-99.99,WeatherLink 5.7,2013-03-11 20:35:00,
2013-03-11 16:40:00,48.3,37.8,30.18,SW,225,1.0,6.0,67,0.00,,,-99.99,WeatherLink 5.7,2013-03-11 20:40:00,
2013-03-11 16:45:00,48.2,37.8,30.18,SW,225,0.0,6.0,67,0.00,,,-99.99,WeatherLink 5.7,2013-03-11 20:45:00,
2013-03-11 16:50:00,48.0,37.9,30.18,SW,225,0.0,6.0,68,0.00,,,-99.99,WeatherLink 5.7,2013-03-11 20:50:00,
2013-03-11 16:55:00,48.0,37.6,30.18,SW,225,0.0,1.0,67,0.00,,,-99.99,WeatherLink 5.7,2013-03-11 20:55:00,
2013-03-11 17:00:00,47.7,38.0,30.18,SW,225,1.0,5.0,69,0.00,,,-99.99,WeatherLink 5.7,2013-03-11 21:00:00,
2013-03-11 17:05:00,47.6,37.9,30.18,SW,225,0.0,6.0,69,0.00,,,-99.99,WeatherLink 5.7,2013-03-11 21:05:00,
2013-03-11 17:10:00,47.4,38.1,30.18,SSE,157,1.0,5.0,70,0.00,,,-99.99,WeatherLink 5.7,2013-03-11 21:10:00,
2013-03-11 17:15:00,47.3,38.0,30.18,SW,225,1.0,11.0,70,0.00,,,-99.99,WeatherLink 5.7,2013-03-11 21:15:00,
2013-03-11 17:20:00,47.0,38.1,30.18,North,-999,0.0,0.0,71,0.00,,,-99.99,WeatherLink 5.7,2013-03-11 21:20:00,
2013-03-11 17:25:00,47.0,38.4,30.18,SSE,157,0.0,6.0,72,0.00,,,-99.99,WeatherLink 5.7,2013-03-11 21:25:00,
2013-03-11 17:30:00,46.7,38.1,30.17,SW,225,0.0,5.0,72,0.00,,,-99.99,WeatherLink 5.7,2013-03-11 21:30:00,
2013-03-11 17:35:00,46.5,38.3,30.17,SW,225,0.0,5.0,73,0.00,,,-99.99,WeatherLink 5.7,2013-03-11 21:35:00,
2013-03-11 17:40:00,46.4,38.6,30.17,SW,225,0.0,1.0,74,0.00,,,-99.99,WeatherLink 5.7,2013-03-11 21:40:00,
2013-03-11 17:45:00,46.2,38.4,30.18,North,-999,0.0,0.0,74,0.00,,,-99.99,WeatherLink 5.7,2013-03-11 21:45:00,
2013-03-11 17:50:00,46.1,38.6,30.18,South,180,1.0,6.0,75,0.00,,,-99.99,WeatherLink 5.7,2013-03-11 21:50:00,
2013-03-11 17:55:00,45.8,38.3,30.18,SSE,157,1.0,6.0,75,0.00,,,-99.99,WeatherLink 5.7,2013-03-11 21:55:00,
2013-03-11 18:00:00,45.7,38.2,30.18,SSE,157,0.0,4.0,75,0.00,,,-99.99,WeatherLink 5.7,2013-03-11 22:00:00,
2013-03-11 18:05:00,45.5,38.0,30.18,South,180,0.0,2.0,75,0.00,,,-99.99,WeatherLink 5.7,2013-03-11 22:05:00,
2013-03-11 18:10:00,45.1,38.0,30.18,SW,225,0.0,5.0,76,0.00,,,-99.99,WeatherLink 5.7,2013-03-11 22:10:00,
2013-03-11 18:15:00,44.9,38.1,30.18,SW,225,0.0,3.0,77,0.00,,,-99.99,WeatherLink 5.7,2013-03-11 22:15:00,
2013-03-11 18:20:00,44.9,38.5,30.18,SW,225,0.0,6.0,78,0.00,,,-99.99,WeatherLink 5.7,2013-03-11 22:20:00,
2013-03-11 18:25:00,44.6,38.2,30.18,North,-999,0.0,0.0,78,0.00,,,-99.99,WeatherLink 5.7,2013-03-11 22:25:00,
2013-03-11 18:30:00,44.5,38.4,30.17,ESE,112,1.0,5.0,79,0.00,,,-99.99,WeatherLink 5.7,2013-03-11 22:30:00,
2013-03-11 18:35:00,44.3,38.2,30.17,East,90,0.0,3.0,79,0.00,,,-99.99,WeatherLink 5.7,2013-03-11 22:35:00,
2013-03-11 18:40:00,44.2,38.1,30.17,SE,135,0.0,1.0,79,0.00,,,-99.99,WeatherLink 5.7,2013-03-11 22:40:00,
2013-03-11 18:45:00,44.1,38.3,30.18,WNW,292,1.0,6.0,80,0.00,,,-99.99,WeatherLink 5.7,2013-03-11 22:45:00,
2013-03-11 18:50:00,44.1,38.3,30.18,SW,225,0.0,5.0,80,0.00,,,-99.99,WeatherLink 5.7,2013-03-11 22:50:00,
2013-03-11 18:55:00,44.1,38.3,30.18,North,-999,0.0,0.0,80,0.00,,,-99.99,WeatherLink 5.7,2013-03-11 22:55:00,
2013-03-11 19:00:00,43.9,38.4,30.18,SW,225,1.0,5.0,81,0.00,,,-99.99,WeatherLink 5.7,2013-03-11 23:00:00,
2013-03-11 19:05:00,43.9,38.4,30.18,North,-999,0.0,0.0,81,0.00,,,-99.99,WeatherLink 5.7,2013-03-11 23:05:00,
2013-03-11 19:10:00,43.5,37.7,30.18,North,-999,0.0,0.0,80,0.00,,,-99.99,WeatherLink 5.7,2013-03-11 23:10:00,
2013-03-11 19:15:00,43.3,37.9,30.17,SE,135,1.0,8.0,81,0.00,,,-99.99,WeatherLink 5.7,2013-03-11 23:15:00,
2013-03-11 19:20:00,43.1,38.0,30.17,North,-999,0.0,0.0,82,0.00,,,-99.99,WeatherLink 5.7,2013-03-11 23:20:00,
2013-03-11 19:25:00,42.8,37.4,30.17,North,-999,0.0,0.0,81,0.00,,,-99.99,WeatherLink 5.7,2013-03-11 23:25:00,
2013-03-11 19:30:00,42.6,37.5,30.17,North,-999,0.0,0.0,82,0.00,,,-99.99,WeatherLink 5.7,2013-03-11 23:30:00,
2013-03-11 19:35:00,42.3,37.2,30.17,North,-999,0.0,0.0,82,0.00,,,-99.99,WeatherLink 5.7,2013-03-11 23:35:00,
2013-03-11 19:40:00,42.3,37.5,30.17,SE,135,0.0,3.0,83,0.00,,,-99.99,WeatherLink 5.7,2013-03-11 23:40:00,
2013-03-11 19:45:00,42.3,37.8,30.17,SE,135,0.0,1.0,84,0.00,,,-99.99,WeatherLink 5.7,2013-03-11 23:45:00,
2013-03-11 19:50:00,42.2,37.7,30.17,SE,135,0.0,2.0,84,0.00,,,-99.99,WeatherLink 5.7,2013-03-11 23:50:00,
2013-03-11 19:55:00,42.2,37.7,30.17,North,-999,0.0,0.0,84,0.00,,,-99.99,WeatherLink 5.7,2013-03-11 23:55:00,
2013-03-11 20:00:00,42.1,37.6,30.17,North,-999,0.0,0.0,84,0.00,,,-99.99,WeatherLink 5.7,2013-03-12 00:00:00,
2013-03-11 20:05:00,41.8,37.3,30.17,North,-999,0.0,0.0,84,0.00,,,-99.99,WeatherLink 5.7,2013-03-12 00:05:00,
2013-03-11 20:10:00,41.8,37.6,30.17,North,-999,0.0,0.0,85,0.00,,,-99.99,WeatherLink 5.7,2013-03-12 00:10:00,
2013-03-11 20:15:00,41.8,37.6,30.17,North,-999,0.0,0.0,85,0.00,,,-99.99,WeatherLink 5.7,2013-03-12 00:15:00,
2013-03-11 20:20:00,41.8,37.6,30.17,North,-999,0.0,0.0,85,0.00,,,-99.99,WeatherLink 5.7,2013-03-12 00:20:00,
2013-03-11 20:25:00,41.8,37.6,30.17,North,-999,0.0,0.0,85,0.00,,,-99.99,WeatherLink 5.7,2013-03-12 00:25:00,
2013-03-11 20:30:00,41.8,37.9,30.18,SSE,157,0.0,1.0,86,0.00,,,-99.99,WeatherLink 5.7,2013-03-12 00:30:00,
2013-03-11 20:35:00,41.8,37.9,30.18,North,-999,0.0,0.0,86,0.00,,,-99.99,WeatherLink 5.7,2013-03-12 00:35:00,
2013-03-11 20:40:00,41.8,37.9,30.18,North,-999,0.0,0.0,86,0.00,,,-99.99,WeatherLink 5.7,2013-03-12 00:40:00,
2013-03-11 20:45:00,41.9,38.3,30.18,North,-999,0.0,0.0,87,0.00,,,-99.99,WeatherLink 5.7,2013-03-12 00:45:00,
2013-03-11 20:50:00,41.9,38.3,30.18,North,-999,0.0,0.0,87,0.00,,,-99.99,WeatherLink 5.7,2013-03-12 00:50:00,
2013-03-11 20:55:00,42.1,38.5,30.18,North,-999,0.0,0.0,87,0.00,,,-99.99,WeatherLink 5.7,2013-03-12 00:55:00,
2013-03-11 21:00:00,41.8,38.2,30.17,South,180,0.0,5.0,87,0.00,,,-99.99,WeatherLink 5.7,2013-03-12 01:00:00,
2013-03-11 21:05:00,41.9,38.3,30.17,North,-999,0.0,0.0,87,0.00,,,-99.99,WeatherLink 5.7,2013-03-12 01:05:00,
2013-03-11 21:10:00,42.1,38.8,30.17,South,180,0.0,3.0,88,0.00,,,-99.99,WeatherLink 5.7,2013-03-12 01:10:00,
2013-03-11 21:15:00,41.8,38.2,30.17,North,-999,0.0,0.0,87,0.00,,,-99.99,WeatherLink 5.7,2013-03-12 01:15:00,
2013-03-11 21:20:00,41.8,38.5,30.17,South,180,0.0,1.0,88,0.00,,,-99.99,WeatherLink 5.7,2013-03-12 01:20:00,
2013-03-11 21:25:00,41.6,38.3,30.17,North,-999,0.0,0.0,88,0.00,,,-99.99,WeatherLink 5.7,2013-03-12 01:25:00,
2013-03-11 21:30:00,41.8,38.5,30.17,North,-999,0.0,0.0,88,0.00,,,-99.99,WeatherLink 5.7,2013-03-12 01:30:00,
2013-03-11 21:35:00,41.8,38.5,30.17,SSE,157,0.0,3.0,88,0.00,,,-99.99,WeatherLink 5.7,2013-03-12 01:35:00,
2013-03-11 21:40:00,41.6,38.3,30.17,North,-999,0.0,0.0,88,0.00,,,-99.99,WeatherLink 5.7,2013-03-12 01:40:00,
2013-03-11 21:45:00,41.5,38.2,30.16,North,-999,0.0,0.0,88,0.00,,,-99.99,WeatherLink 5.7,2013-03-12 01:45:00,
2013-03-11 21:50:00,41.3,38.3,30.16,North,-999,0.0,0.0,89,0.00,,,-99.99,WeatherLink 5.7,2013-03-12 01:50:00,
2013-03-11 21:55:00,41.1,37.8,30.16,North,-999,0.0,0.0,88,0.00,,,-99.99,WeatherLink 5.7,2013-03-12 01:55:00,
2013-03-11 22:00:00,40.9,37.9,30.16,North,-999,0.0,0.0,89,0.00,,,-99.99,WeatherLink 5.7,2013-03-12 02:00:00,
2013-03-11 22:05:00,40.9,37.9,30.16,WSW,247,0.0,2.0,89,0.00,,,-99.99,WeatherLink 5.7,2013-03-12 02:05:00,
2013-03-11 22:10:00,41.1,38.4,30.16,North,-999,0.0,0.0,90,0.00,,,-99.99,WeatherLink 5.7,2013-03-12 02:10:00,
2013-03-11 22:15:00,41.1,38.4,30.16,North,-999,0.0,0.0,90,0.00,,,-99.99,WeatherLink 5.7,2013-03-12 02:15:00,
2013-03-11 22:20:00,41.1,38.4,30.16,North,-999,0.0,0.0,90,0.00,,,-99.99,WeatherLink 5.7,2013-03-12 02:20:00,
2013-03-11 22:25:00,40.9,38.2,30.16,North,-999,0.0,0.0,90,0.00,,,-99.99,WeatherLink 5.7,2013-03-12 02:25:00,
2013-03-11 22:30:00,40.6,37.9,30.16,North,-999,0.0,0.0,90,0.00,,,-99.99,WeatherLink 5.7,2013-03-12 02:30:00,
2013-03-11 22:35:00,40.6,37.9,30.16,WSW,247,0.0,1.0,90,0.00,,,-99.99,WeatherLink 5.7,2013-03-12 02:35:00,
2013-03-11 22:40:00,40.6,37.9,30.16,North,-999,0.0,0.0,90,0.00,,,-99.99,WeatherLink 5.7,2013-03-12 02:40:00,
2013-03-11 22:45:00,40.3,37.6,30.16,North,-999,0.0,0.0,90,0.00,,,-99.99,WeatherLink 5.7,2013-03-12 02:45:00,
2013-03-11 22:50:00,40.3,37.9,30.16,North,-999,0.0,0.0,91,0.00,,,-99.99,WeatherLink 5.7,2013-03-12 02:50:00,
2013-03-11 22:55:00,40.5,38.1,30.16,North,-999,0.0,0.0,91,0.00,,,-99.99,WeatherLink 5.7,2013-03-12 02:55:00,
2013-03-11 23:00:00,40.5,38.1,30.16,North,-999,0.0,0.0,91,0.00,,,-99.99,WeatherLink 5.7,2013-03-12 03:00:00,
2013-03-11 23:05:00,40.3,37.9,30.16,North,-999,0.0,0.0,91,0.00,,,-99.99,WeatherLink 5.7,2013-03-12 03:05:00,
2013-03-11 23:10:00,40.3,37.9,30.16,North,-999,0.0,0.0,91,0.00,,,-99.99,WeatherLink 5.7,2013-03-12 03:10:00,
2013-03-11 23:15:00,40.6,38.5,30.15,WSW,247,1.0,8.0,92,0.00,,,-99.99,WeatherLink 5.7,2013-03-12 03:15:00,
2013-03-11 23:20:00,41.1,39.0,30.15,SSW,202,0.0,5.0,92,0.00,,,-99.99,WeatherLink 5.7,2013-03-12 03:20:00,
2013-03-11 23:25:00,41.2,39.1,30.15,SW,225,0.0,3.0,92,0.00,,,-99.99,WeatherLink 5.7,2013-03-12 03:25:00,
2013-03-11 23:30:00,41.3,39.2,30.15,SW,225,0.0,1.0,92,0.00,,,-99.99,WeatherLink 5.7,2013-03-12 03:30:00,
2013-03-11 23:35:00,41.1,39.0,30.15,SW,225,0.0,4.0,92,0.00,,,-99.99,WeatherLink 5.7,2013-03-12 03:35:00,
2013-03-11 23:40:00,41.1,39.0,30.15,South,180,1.0,6.0,92,0.00,,,-99.99,WeatherLink 5.7,2013-03-12 03:40:00,
2013-03-11 23:45:00,40.9,38.8,30.13,NE,45,0.0,3.0,92,0.00,,,-99.99,WeatherLink 5.7,2013-03-12 03:45:00,
2013-03-11 23:50:00,40.8,38.7,30.13,North,-999,0.0,0.0,92,0.00,,,-99.99,WeatherLink 5.7,2013-03-12 03:50:00,
2013-03-11 23:55:00,40.1,38.0,30.13,North,-999,0.0,0.0,92,0.00,,,-99.99,WeatherLink 5.7,2013-03-12 03:55:00,